FW7008 Weather Reports


Display with metric or nautical units.
time (UTC)temp
F
wind
direction
speed
MPH
gust
MPH
rain 1hr
in
rain 24hr
in
rain mn
in
humidity
%
barometer
mb
20260504042911 60 229 0.0 0.0 0.00 0.00 0.00 85 1015.6
20260504042408 60 248 0.0 0.0 0.00 0.00 0.00 86 1015.9
20260504041904 60 223 0.0 0.0 0.00 0.00 0.00 86 1015.9
20260504041400 60 235 0.0 0.0 0.00 0.00 0.00 85 1015.6
20260504040856 60 230 0.0 0.0 0.00 0.00 0.00 85 1015.6
20260504040354 60 159 0.0 0.0 0.00 0.00 0.00 85 1015.9
20260504035849 60 245 0.0 0.0 0.00 0.00 0.00 84 1015.6
20260504035347 60 232 0.0 1.0 0.00 0.00 0.00 84 1015.6
20260504034844 60 178 6.0 7.0 0.00 0.00 0.00 84 1015.6
20260504034342 60 245 0.0 0.0 0.00 0.00 0.00 83 1015.2
20260504033839 60 262 4.0 5.0 0.00 0.00 0.00 83 1015.6
20260504033337 61 179 0.0 0.0 0.00 0.00 0.00 83 1015.2
20260504032833 61 252 0.0 1.0 0.00 0.00 0.00 83 1015.2
20260504032331 61 225 0.0 0.0 0.00 0.00 0.00 83 1015.2
20260504031827 61 230 0.0 0.0 0.00 0.00 0.00 82 1014.9
20260504031324 61 229 0.0 1.0 0.00 0.00 0.00 82 1015.2
20260504030820 61 157 0.0 0.0 0.00 0.00 0.00 81 1014.9
20260504030318 61 171 0.0 0.0 0.00 0.00 0.00 82 1014.9
20260504025814 61 239 0.0 0.0 0.00 0.00 0.00 82 1014.9
20260504025311 61 239 0.0 0.0 0.00 0.00 0.00 82 1014.9
20260504024808 61 236 0.0 0.0 0.00 0.00 0.00 82 1014.6
20260504024304 61 233 0.0 0.0 0.00 0.00 0.00 82 1014.6
20260504023801 61 177 0.0 0.0 0.00 0.00 0.00 81 1014.6
20260504023257 61 230 1.0 5.0 0.00 0.00 0.00 81 1014.9
20260504022753 61 226 0.0 0.0 0.00 0.00 0.00 82 1014.9
20260504022249 61 258 5.0 9.0 0.00 0.00 0.00 81 1014.6
20260504021747 61 244 8.0 8.0 0.00 0.00 0.00 81 1014.6
20260504021244 61 170 5.0 7.0 0.00 0.00 0.00 81 1014.6
20260504020741 61 237 1.0 3.0 0.00 0.00 0.00 81 1014.6
20260504020237 61 243 1.0 5.0 0.00 0.00 0.00 81 1014.6
20260504015733 61 234 0.0 0.0 0.00 0.00 0.00 81 1014.6
20260504015230 61 248 10.0 13.0 0.00 0.00 0.00 81 1014.2
20260504014726 62 266 0.0 0.0 0.00 0.00 0.00 81 1014.2
20260504014223 62 226 0.0 0.0 0.00 0.00 0.00 81 1014.2
20260504013721 61 234 5.0 8.0 0.00 0.00 0.00 81 1014.2
20260504013218 62 273 0.0 0.0 0.00 0.00 0.00 81 1014.2
20260504012714 62 228 4.0 6.0 0.00 0.00 0.00 81 1013.9
20260504012212 62 245 10.0 11.0 0.00 0.00 0.00 80 1014.2
20260504011709 62 233 0.0 0.0 0.00 0.00 0.00 80 1014.2
20260504011205 62 255 7.0 11.0 0.00 0.00 0.00 80 1014.2
20260504010702 62 238 4.0 8.0 0.00 0.00 0.00 80 1013.9
20260504010157 62 225 0.0 0.0 0.00 0.00 0.00 80 1014.2
20260504005654 63 226 4.0 7.0 0.00 0.00 0.00 79 1014.2
20260504005151 62 200 2.0 2.0 0.00 0.00 0.00 80 1013.9
20260504004649 62 232 0.0 0.0 0.00 0.00 0.00 80 1013.9
20260504004146 62 243 0.0 0.0 0.00 0.00 0.00 81 1013.9
20260504003642 62 255 8.0 9.0 0.00 0.00 0.00 81 1014.2
20260504003139 63 242 5.0 7.0 0.00 0.00 0.00 80 1013.9
20260504002636 63 185 0.0 0.0 0.00 0.00 0.00 80 1013.9
20260504002134 62 174 5.0 8.0 0.00 0.00 0.00 81 1014.2
20260504001631 62 273 3.0 5.0 0.00 0.00 0.00 81 1014.2
20260504001127 63 245 4.0 6.0 0.00 0.00 0.00 81 1013.9
20260504000624 63 223 2.0 5.0 0.00 0.00 0.00 81 1013.9
20260504000122 62 253 4.0 6.0 0.00 0.00 0.00 82 1013.9
20260503235620 63 243 0.0 0.0 0.00 0.00 0.00 81 1013.9
20260503235116 63 184 2.0 5.0 0.00 0.00 0.00 81 1013.5
20260503234614 63 186 0.0 0.0 0.00 0.00 0.00 81 1013.9
20260503234112 63 264 0.0 0.0 0.00 0.00 0.00 80 1013.9
20260503233609 63 253 7.0 8.0 0.00 0.00 0.00 81 1013.9
20260503233104 63 156 0.0 0.0 0.00 0.00 0.00 82 1013.9
20260503232601 62 216 0.0 0.0 0.00 0.00 0.00 83 1013.9
20260503232059 63 243 0.0 2.0 0.00 0.00 0.00 82 1014.2
20260503231556 64 233 5.0 7.0 0.00 0.00 0.00 81 1014.2
20260503231053 64 237 9.0 11.0 0.00 0.00 0.00 80 1014.2
20260503230549 63 195 0.0 0.0 0.00 0.00 0.00 81 1014.2
20260503230047 64 194 5.0 6.0 0.00 0.00 0.00 79 1014.2
20260503225544 64 204 0.0 1.0 0.00 0.00 0.00 77 1013.9
20260503225039 64 272 5.0 9.0 0.00 0.00 0.00 77 1014.2
20260503224537 64 242 3.0 6.0 0.00 0.00 0.00 77 1014.2
20260503224034 64 238 5.0 7.0 0.00 0.00 0.00 76 1014.6
20260503223533 64 244 4.0 6.0 0.00 0.00 0.00 77 1014.6
20260503223027 65 201 5.0 7.0 0.00 0.00 0.00 76 1014.6
20260503222526 64 244 4.0 6.0 0.00 0.00 0.00 76 1014.2
20260503222024 64 246 8.0 9.0 0.00 0.00 0.00 75 1014.6
20260503221522 65 253 3.0 3.0 0.00 0.00 0.00 75 1014.2
20260503221019 64 176 5.0 9.0 0.00 0.00 0.00 75 1014.6
20260503220515 65 254 7.0 10.0 0.00 0.00 0.00 72 1014.2
20260503220012 65 257 6.0 10.0 0.00 0.00 0.00 72 1014.6
20260503215509 65 198 4.0 7.0 0.00 0.00 0.00 73 1014.6
20260503215006 65 259 7.0 11.0 0.00 0.00 0.00 72 1014.2
20260503214504 64 246 11.0 14.0 0.00 0.00 0.00 72 1014.9
20260503214001 65 234 7.0 8.0 0.00 0.00 0.00 73 1014.6
20260503213459 64 181 9.0 10.0 0.00 0.00 0.00 73 1014.6
20260503212955 65 221 7.0 11.0 0.00 0.00 0.00 72 1014.9
20260503212453 65 205 8.0 11.0 0.00 0.00 0.00 71 1014.9
20260503211950 65 225 8.0 11.0 0.00 0.00 0.00 72 1014.6
20260503211447 65 177 9.0 10.0 0.00 0.00 0.00 71 1014.9
20260503210942 65 208 4.0 7.0 0.00 0.00 0.00 72 1014.9
20260503210439 65 242 9.0 11.0 0.00 0.00 0.00 72 1014.9
20260503205934 66 175 8.0 10.0 0.00 0.00 0.00 70 1014.9
20260503205432 65 250 7.0 10.0 0.00 0.00 0.00 67 1014.9
20260503204927 66 234 6.0 8.0 0.00 0.00 0.00 69 1014.9
20260503204425 66 223 8.0 10.0 0.00 0.00 0.00 68 1014.9
20260503203921 66 218 6.0 8.0 0.00 0.00 0.00 70 1014.9
20260503203419 65 229 3.0 5.0 0.00 0.00 0.00 69 1014.9
20260503202916 66 236 0.0 2.0 0.00 0.00 0.00 68 1014.9
20260503202414 65 189 0.0 0.0 0.00 0.00 0.00 70 1014.9
20260503201912 66 260 10.0 10.0 0.00 0.00 0.00 66 1014.9
20260503201409 65 230 6.0 9.0 0.00 0.00 0.00 68 1014.9
20260503200907 65 269 7.0 9.0 0.00 0.00 0.00 69 1014.9
20260503200402 66 273 7.0 9.0 0.00 0.00 0.00 67 1014.9
20260503195859 65 260 7.0 10.0 0.00 0.00 0.00 66 1014.9
20260503195356 66 237 7.0 8.0 0.00 0.00 0.00 65 1014.9
20260503194853 65 240 7.0 8.0 0.00 0.00 0.00 65 1014.9
20260503194349 64 242 6.0 7.0 0.00 0.00 0.00 68 1015.2
20260503193846 65 246 4.0 7.0 0.00 0.00 0.00 67 1015.2
20260503193341 65 174 5.0 7.0 0.00 0.00 0.00 68 1015.2
20260503192837 65 238 6.0 7.0 0.00 0.00 0.00 71 1015.2
20260503192333 65 218 6.0 8.0 0.00 0.00 0.00 70 1015.2
20260503191829 66 169 0.0 0.0 0.00 0.00 0.00 70 1015.2
20260503191326 65 250 5.0 6.0 0.00 0.00 0.00 70 1015.2
20260503190823 66 245 8.0 9.0 0.00 0.00 0.00 69 1015.6
20260503190321 66 237 0.0 0.0 0.00 0.00 0.00 66 1015.6
20260503185817 66 244 0.0 0.0 0.00 0.00 0.00 67 1015.6
20260503185313 66 247 6.0 7.0 0.00 0.00 0.00 67 1015.6
20260503184808 66 262 0.0 0.0 0.00 0.00 0.00 67 1015.6
20260503184304 66 277 4.0 6.0 0.00 0.00 0.00 68 1015.2
20260503183800 66 248 0.0 0.0 0.00 0.00 0.00 68 1015.6
20260503183258 65 240 0.0 0.0 0.00 0.00 0.00 69 1015.6
20260503182755 66 184 7.0 7.0 0.00 0.00 0.00 69 1015.6
20260503182254 66 151 5.0 6.0 0.00 0.00 0.00 69 1015.6
20260503181750 65 221 4.0 7.0 0.00 0.00 0.00 69 1015.6
20260503181247 64 202 0.0 0.0 0.00 0.00 0.00 72 1015.6
20260503180744 64 218 2.0 3.0 0.00 0.00 0.00 72 1015.6
20260503180242 63 247 7.0 9.0 0.00 0.00 0.00 72 1015.9
20260503175738 63 220 5.0 7.0 0.00 0.00 0.00 71 1015.6
20260503175236 63 245 7.0 8.0 0.00 0.00 0.00 71 1015.6
20260503174732 64 254 0.0 0.0 0.00 0.00 0.00 73 1015.6
20260503174231 63 227 0.0 0.0 0.00 0.00 0.00 76 1015.6
20260503173730 63 215 0.0 0.0 0.00 0.00 0.00 76 1015.6
20260503173226 63 201 0.0 0.0 0.00 0.00 0.00 77 1015.6
20260503172724 62 173 0.0 0.0 0.00 0.00 0.00 79 1015.6
20260503172221 64 223 0.0 0.0 0.00 0.00 0.00 76 1015.6
20260503171717 63 160 0.0 0.0 0.00 0.00 0.00 74 1015.6
20260503171214 63 151 0.0 0.0 0.00 0.00 0.00 74 1015.6
20260503170711 63 215 0.0 0.0 0.00 0.00 0.00 77 1015.2
20260503170208 62 261 0.0 0.0 0.00 0.00 0.00 79 1015.2
20260503160130 62 184 0.0 0.0 0.00 0.00 0.00 79 1014.9
20260503150600 61 131 0.0 0.0 0.00 0.00 0.00 85 1014.9
20260503130949 59 246 0.0 0.0 0.00 0.00 0.00 90 1013.9
20260503130447 59 251 0.0 0.0 0.00 0.00 0.00 91 1013.9
20260503110343 60 168 0.0 0.0 0.00 0.00 0.00 89 1013.2
20260503090224 60 157 0.0 0.0 0.00 0.00 0.00 87 1014.2
20260503081151 60 171 0.0 0.0 0.00 0.00 0.00 87 1014.2
20260503080646 60 181 0.0 0.0 0.00 0.00 0.00 88 1014.6
20260503080144 60 151 0.0 0.0 0.00 0.00 0.00 88 1014.2
20260503072615 60 157 0.0 0.0 0.00 0.00 0.00 90 1013.9
20260503072112 60 214 0.0 0.0 0.00 0.00 0.00 90 1014.2
20260503071608 60 193 0.0 0.0 0.00 0.00 0.00 90 1014.2
20260503071105 60 199 0.0 0.0 0.00 0.00 0.00 90 1013.9
20260503070602 60 161 0.0 0.0 0.00 0.00 0.00 91 1013.9
20260503055014 60 219 0.0 0.0 0.00 0.00 0.00 95 1013.9
20260503054510 60 218 0.0 0.0 0.00 0.00 0.00 95 1013.9
20260503054008 60 228 0.0 0.0 0.00 0.00 0.00 95 1013.9
20260503053506 59 169 0.0 0.0 0.00 0.00 0.00 95 1013.9
20260503053003 60 244 0.0 0.0 0.00 0.00 0.00 95 1013.9
20260503052500 60 227 0.0 0.0 0.00 0.00 0.00 95 1013.9
20260503051956 59 255 0.0 0.0 0.00 0.00 0.00 95 1013.9
20260503051452 60 261 0.0 0.0 0.00 0.00 0.00 95 1013.9
20260503050949 59 227 0.0 0.0 0.00 0.00 0.00 95 1013.9
20260503050445 60 252 0.0 1.0 0.00 0.00 0.00 95 1013.9
20260503045943 60 250 0.0 0.0 0.00 0.00 0.00 95 1013.9
20260503045440 60 212 0.0 0.0 0.00 0.00 0.00 95 1013.9
20260503044937 60 226 0.0 0.0 0.00 0.00 0.00 95 1013.9
20260503044434 60 169 0.0 0.0 0.00 0.00 0.00 95 1013.9
20260503043932 60 238 0.0 0.0 0.00 0.00 0.00 95 1013.9
20260503043427 59 213 0.0 0.0 0.00 0.00 0.00 95 1013.9